Location: Newark
(33.1119°N, 7.4058°W)
Time: 12:56:42
(UTC+00:00)

Hubble Space Telescope - Pass Details

Date: 23 November 2019
Orbit: 536 x 540 km, 28.5° (Epoch: 15 December)

Event Time Altitude Azimuth Distance (km) Brightness Sun altitude
Rises 18:57:01 0° 261° (W) 2,669 6.0 -19.3°
Reaches altitude 10° 18:59:21 10° 254° (WSW) 1,779 4.6 -19.7°
Maximum altitude 19:03:16 43° 182° (S) 753 1.5 -20.5°
Enters shadow 19:04:09 37° 147° (SSE) 839 1.5 -20.7°
